Regional Weather Roundup
Issued by NWS Cleveland, OH

Home | Current Version | Previous Version | Graphics & Text | Print | Product List | Glossary On
Versions: 1 2 3 4 5 6 7 8 9 10 11 12 13 14 15 16 17 18 19 20 21 22 23 24 25 26 27 28 29 30 31 32 33 34 35 36 37 38 39 40 41 42 43 44 45 46 47 48 49 50
000
ASUS41 KCLE 042000
RWRCLE
OHIO REGIONAL WEATHER ROUNDUP
NATIONAL WEATHER SERVICE WILMINGTON, OH
300 PM EST SUN DEC 04 2016

NOTE: "FAIR" INDICATES FEW OR NO CLOUDS BELOW 12,000 FEET WITH NO
SIGNIFICANT WEATHER AND/OR OBSTRUCTIONS TO VISIBILITY.

OHZ001>008-015>018-024>027-034-035-043-044-042100-
   NORTHWEST OHIO

CITY           SKY/WX    TMP DP  RH WIND       PRES   REMARKS
DEFIANCE       CLOUDY    40  30  67 SE8       30.01F
FINDLAY        CLOUDY    41  28  60 E9        29.99F
TOLEDO EXPRESS CLOUDY    38  29  70 E6        30.03F
TOLEDO EXEC    CLOUDY    39  29  67 SE9       30.04F
LIMA           CLOUDY    40  30  67 SE15      29.97F
$$

OHZ009>014-019>023-028>033-038-089-042100-
   NORTHEAST OHIO

CITY           SKY/WX    TMP DP  RH WIND       PRES   REMARKS
CLE-HOPKINS    CLOUDY    41  26  55 SE14      30.08F
CLE-LAKEFRONT  FAIR      41  27  57 SE14      30.06F
CUY CO. ARPT   CLOUDY    41  30  65 SE12      30.08F
LORAIN-ELYRIA  CLOUDY    39  26  59 SE10      30.04F
ASHTABULA      FAIR      40  30  67 SE6       30.09F
AKRON-CANTON   CLOUDY    39  27  62 SE14      30.05F
WOOSTER        NOT AVBL
MANSFIELD      PTSUNNY   38  27  64 E13       30.00F
YOUNGSTOWN     CLOUDY    39  29  67 SE10      30.08F
$$

OHZ042-051>053-060>062-070>072-077>081-042100-
  SOUTHWEST OHIO

CITY           SKY/WX    TMP DP  RH WIND       PRES   REMARKS
CINC-COVINGTON CLOUDY    44  32  62 E9        29.93F
CINC-LUNKEN    CLOUDY    45  32  60 SE7       29.97F
HAMILTON       CLOUDY    43  30  60 E9        29.96F
DAYTON         NOT AVBL
WRIGHT-PAT AFB CLOUDY    41  30  66 E13       29.96F
DAYTON GENERAL CLOUDY    41  28  60 E10       29.94F
WILMINGTON     CLOUDY    40  30  67 E9        29.95F
$$

OHZ036-037-039>041-045>050-054>059-063>069-073>076-082>088-042100-
  CENTRAL AND SOUTHEAST OHIO

CITY           SKY/WX    TMP DP  RH WIND       PRES   REMARKS
COLUMBUS       CLOUDY    42  30  62 E14       30.00F
OSU AIRPORT    PTSUNNY   41  30  65 E8        29.99F
BOLTON FIELD   CLOUDY    41  30  65 E13       30.00F
RICKENBACK AFB NOT AVBL
NEWARK         CLOUDY    41  26  55 E9        30.00F
MARION         PTSUNNY   40  28  62 SE14      30.00F
LANCASTER      PTSUNNY   42  29  59 E14       30.00F
ZANESVILLE     CLOUDY    43  28  55 E13       30.02F
NEW PHILLY     PTSUNNY   41  28  60 SE12      30.05F
$$




USA.gov is the U.S. government's official web portal to all federal, state and local government web resources and services.